[[{"header":{"parameterUnit":"m.s-1","parameterCategory":1,"la1":30.2991,"la2":30.254,"lo1":-89.0895,"lo2":-89.0444,"dy":0.0017,"dx":0.0017,"nx":28,"ny":28,"refTime":"2025-12-28T09:00:00:Z","depth":0,"parameterNumber":2,"parameterNumberName":"U-component_of_WINDS"},"data":[0,0,0,0,0,0,0,0,0,0,0,0,0,0,0,0,0,0,0,0,0,0,0,0,0,0,0,0,0,0,0,0,0,0,0,0,0,0,0,0,0,0,0,0,0,0,0,0,0,0,0,0,0,0,0,0,0,0,3.9125,3.9125,0,3.9149,3.9149,3.9149,3.9105,3.9103,3.9102,3.9101,3.9126,3.9128,3.913,0,0,0,0,0,0,0,0,0,0,0,0,0,3.9045,3.9047,3.9125,3.9125,3.9126,3.9149,3.9149,3.9149,3.9105,3.9103,3.9102,3.91,3.9126,3.9128,3.913,0,0,0,0,0,0,0,0,0,0,0,0,0,3.9075,3.9047,3.9125,3.9106,3.9105,3.9149,3.9149,3.9149,3.9105,3.9103,3.9101,3.9099,3.9125,3.9128,3.9131,3.9194,0,0,3.914,3.9142,0,0,0,0,0,0,0,0,3.9074,3.9078,3.9109,3.9108,3.9106,3.9121,3.913,3.9164,3.9106,3.9105,3.91,3.9098,3.9127,3.9129,3.9139,3.9195,3.9196,3.9141,3.9142,3.9144,3.9145,0,0,0,0,0,0,0,3.9072,3.9077,3.9134,3.9109,3.9108,3.9098,3.91,3.9136,3.9128,3.9105,3.9102,3.9105,3.9125,3.9136,3.9139,3.9197,3.914,3.9143,3.9145,3.9146,3.9309,3.9312,0,0,0,0,0,0,3.9072,3.9076,3.9134,3.9135,3.9084,3.9101,3.9103,3.9119,3.9128,3.9127,3.9107,3.9103,3.9132,3.9135,3.914,3.9216,3.9144,3.9147,3.9148,3.9307,3.931,3.9313,0,0,0,0,0,0,3.907,3.9077,3.9133,3.9105,3.9111,3.9105,3.9123,3.9121,3.9131,3.9129,3.9128,3.9119,3.913,3.9135,3.9181,3.9216,3.9148,3.9151,3.9304,3.9308,3.9311,3.9368,0,0,0,0,0,0,3.9068,3.9077,3.91,3.9105,3.9113,3.9173,3.9125,3.9123,3.9136,3.9131,3.914,3.9139,3.9129,3.9177,3.9184,3.9219,3.9153,3.9301,3.9306,3.931,3.9363,3.9373,3.9382,0,0,0,0,0,3.9065,3.9115,3.9101,3.9109,3.9141,3.9175,3.9179,3.9166,3.9139,3.9163,3.9162,3.9139,3.9211,3.9182,3.919,3.9226,3.9299,3.9304,3.931,3.9359,3.9371,3.9382,0,0,0,0,0,0,3.9113,3.9115,3.91,3.9153,3.9164,3.9168,3.9197,3.9179,3.9199,3.9193,3.9176,3.9178,3.9229,3.9232,3.9199,3.9289,3.9251,3.9258,3.9285,3.9297,3.9306,3.9305,3.9156,0,0,0,0,0,3.913,3.9157,3.9157,3.9204,3.921,3.9203,3.9217,3.9206,3.9217,3.9222,3.9224,3.9237,3.9263,3.928,3.9303,3.9364,3.9366,3.9393,3.9402,3.941,3.9417,3.9451,3.9463,3.9331,3.9331,3.9331,0,0,3.9165,3.9169,3.9187,3.9214,3.9221,3.9251,3.9207,3.9239,3.9262,3.9227,3.9271,3.9274,3.9287,3.9341,3.9365,3.9345,3.9454,3.9417,3.9423,3.9426,3.9458,3.9471,3.9482,3.9335,3.9334,3.9333,0,0,3.9243,3.9249,3.9289,3.9298,3.931,3.9305,3.9315,3.9322,3.9323,3.9366,3.9342,3.9368,3.9412,3.9423,3.9435,3.9521,3.9501,3.9529,3.9578,3.9612,3.9622,3.9632,3.9664,3.9675,3.9535,3.9536,3.9536,0,3.9285,3.9328,3.9312,3.9347,3.936,3.9331,3.9372,3.9382,3.9401,3.9412,3.939,3.9446,3.9453,3.951,3.9531,3.9541,3.9553,3.9527,3.9622,3.9631,3.964,3.967,3.9682,3.9539,3.9539,3.9538,3.9538,0,3.9379,3.941,3.9441,3.9461,3.9478,3.9516,3.9507,3.9526,3.9515,3.9513,3.9559,3.9566,3.9591,3.9604,3.9592,3.9661,3.9648,3.9625,3.9585,3.9656,3.9684,3.9696,3.9544,3.9543,3.9542,3.9541,0,0,3.9487,3.95,3.9512,3.9522,3.9534,3.9558,3.9595,3.962,3.9638,3.9653,3.9685,3.9724,3.9703,3.9716,3.9706,3.9735,3.9805,3.9708,3.9708,3.9727,3.9883,3.9901,3.9915,3.9792,3.9794,3.9796,3.9882,0,3.9567,3.9631,3.9619,3.9683,3.9711,3.9685,3.9718,3.9731,3.973,3.9756,3.9756,3.9784,3.9753,3.9761,3.9789,3.9791,3.9836,3.9784,3.9823,3.9825,3.9821,3.9929,3.9948,4.0029,3.9893,3.9895,3.9896,0,3.9667,3.9686,3.9753,3.9763,3.9774,3.9804,3.9827,3.9851,3.9866,3.9864,3.988,3.9864,3.9904,3.9864,3.9919,3.9884,3.99,3.9903,3.9906,3.9909,3.9865,3.9936,4.0054,4.0067,3.9913,3.9912,3.9911,0,3.9741,3.9784,3.9829,3.9838,3.9851,3.9873,3.9879,3.9891,3.9908,3.9928,3.9939,3.9964,3.9978,3.9999,3.9991,3.9963,4.0049,4.0008,4.0049,4.005,4.0068,4.0067,4.0191,4.0078,4.0077,4.0077,4.0077,0,3.983,3.9872,3.9863,3.9891,3.9938,3.9925,3.9972,3.9976,3.9987,4.0017,3.9995,4.0024,4.0012,4.004,4.0035,4.0083,4.0089,4.0089,4.0087,4.0091,4.0092,4.0101,4.0096,4.008,4.008,4.0079,4.0079,0,3.992,3.9916,3.9964,3.9973,3.9976,4.0011,4.0018,4.0046,4.0045,4.0082,4.0091,4.0089,4.0121,4.0116,4.0152,4.0149,4.0208,4.0199,4.0203,4.0202,4.0244,4.024,4.0378,4.0397,4.0271,4.0272,4.0273,0,3.9978,4.001,4.0023,4.0041,4.0049,4.0078,4.0096,4.0085,4.0104,4.0124,4.0149,4.018,4.0203,4.0256,4.0259,4.0287,4.0279,4.0326,4.0283,4.0287,4.0281,4.0279,4.0283,4.0334,4.0336,4.0337,4.0338,0,4.0081,4.0078,4.0103,4.0129,4.015,4.0169,4.0186,4.0203,4.0194,4.0217,4.0249,4.0268,4.0305,4.0336,4.0363,4.0371,4.0354,4.0351,4.0363,4.0367,4.0369,4.0369,4.0227,4.0348,4.0347,4.0346,4.0346,4.0345,4.0158,4.0186,4.0199,4.0229,4.0241,4.0258,4.0285,4.0288,4.0315,4.0344,4.0337,4.0374,4.039,4.0424,4.0435,4.0465,4.0448,4.0464,4.0468,4.0472,4.0478,4.0364,4.047,4.047,4.0469,4.0469,4.0469,0,4.0261,4.0269,4.0296,4.0322,4.0346,4.0327,4.0346,4.0368,4.0401,4.0417,4.0441,4.048,4.0511,4.0517,4.0547,4.057,4.0563,4.0578,4.0576,4.0579,4.0491,4.0479,4.0583,4.0583,4.0583,4.0583,4.0583,4.0583,4.0317,4.0364,4.0363,4.0416,4.0424,4.0461,4.0473,4.049,4.0503,4.0547,4.0573,4.0577,4.0589,4.062,4.0648,4.0649,4.0662,4.068,4.0678,4.0596,4.0585,4.0574,4.0562,4.0683,4.0683,4.0764,4.0764,4.0765]},{"header":{"parameterUnit":"m.s-1","parameterCategory":1,"la1":30.2991,"la2":30.254,"lo1":-89.0895,"lo2":-89.0444,"dy":0.0017,"dx":0.0017,"nx":28,"ny":28,"refTime":"2025-12-28T09:00:00:Z","depth":0,"parameterNumber":3,"parameterNumberName":"V-component_of_WINDS"},"data":[0,0,0,0,0,0,0,0,0,0,0,0,0,0,0,0,0,0,0,0,0,0,0,0,0,0,0,0,0,0,0,0,0,0,0,0,0,0,0,0,0,0,0,0,0,0,0,0,0,0,0,0,0,0,0,0,0,0,-0.2448,-0.2447,0,-0.2347,-0.2346,-0.2345,-0.2319,-0.232,-0.232,-0.2321,-0.2215,-0.2211,-0.2208,0,0,0,0,0,0,0,0,0,0,0,0,0,-0.2616,-0.2613,-0.2448,-0.2447,-0.2445,-0.2347,-0.2346,-0.2345,-0.2319,-0.232,-0.2321,-0.2321,-0.2216,-0.2212,-0.2208,0,0,0,0,0,0,0,0,0,0,0,0,0,-0.2532,-0.2612,-0.2448,-0.2421,-0.2417,-0.2348,-0.2346,-0.2344,-0.2319,-0.232,-0.2321,-0.2322,-0.2217,-0.2212,-0.2207,-0.2156,0,0,-0.2191,-0.2189,0,0,0,0,0,0,0,0,-0.2537,-0.2526,-0.2426,-0.2423,-0.2419,-0.2347,-0.2366,-0.2281,-0.2319,-0.2356,-0.2321,-0.2322,-0.2258,-0.2249,-0.2228,-0.2151,-0.2146,-0.2191,-0.2188,-0.2185,-0.2184,0,0,0,0,0,0,0,-0.2543,-0.253,-0.2408,-0.2425,-0.242,-0.2413,-0.2402,-0.235,-0.2303,-0.2353,-0.2351,-0.2339,-0.2256,-0.2233,-0.2225,-0.2145,-0.2191,-0.2186,-0.2183,-0.2181,-0.2022,-0.2021,0,0,0,0,0,0,-0.2553,-0.2535,-0.2411,-0.2405,-0.2481,-0.2409,-0.2397,-0.2369,-0.2303,-0.2294,-0.2339,-0.2339,-0.2241,-0.2231,-0.2221,-0.2158,-0.2185,-0.2181,-0.2178,-0.2023,-0.2022,-0.2021,0,0,0,0,0,0,-0.2557,-0.2543,-0.2415,-0.2469,-0.2453,-0.2405,-0.2374,-0.2366,-0.2344,-0.2292,-0.2284,-0.2324,-0.2242,-0.2229,-0.2173,-0.2154,-0.2178,-0.2174,-0.2025,-0.2023,-0.2021,-0.2031,0,0,0,0,0,0,-0.2562,-0.2544,-0.2525,-0.2469,-0.245,-0.2369,-0.2373,-0.2364,-0.2335,-0.2334,-0.2277,-0.2268,-0.2241,-0.2181,-0.2168,-0.2147,-0.217,-0.2026,-0.2024,-0.2022,-0.2032,-0.203,-0.2028,0,0,0,0,0,-0.2568,-0.253,-0.2524,-0.2509,-0.2425,-0.2368,-0.2357,-0.2328,-0.2334,-0.2314,-0.2281,-0.227,-0.2159,-0.2175,-0.2161,-0.2138,-0.2027,-0.2025,-0.2022,-0.2033,-0.203,-0.2028,0,0,0,0,0,0,-0.2583,-0.2522,-0.2514,-0.2458,-0.2418,-0.2364,-0.2337,-0.2326,-0.2283,-0.2283,-0.2249,-0.2236,-0.2183,-0.2155,-0.2175,-0.2086,-0.2093,-0.2087,-0.2106,-0.2103,-0.2101,-0.2109,-0.2165,0,0,0,0,0,-0.258,-0.254,-0.2489,-0.2444,-0.2425,-0.2385,-0.2359,-0.234,-0.2297,-0.228,-0.2243,-0.2202,-0.2157,-0.2129,-0.2085,-0.2028,-0.2016,-0.2006,-0.2004,-0.2002,-0.1998,-0.1966,-0.1962,-0.2012,-0.2012,-0.2012,0,0,-0.2573,-0.2535,-0.2511,-0.2446,-0.2413,-0.2372,-0.237,-0.2326,-0.2295,-0.2273,-0.2219,-0.2191,-0.2142,-0.2086,-0.2059,-0.2061,-0.1981,-0.1999,-0.1998,-0.1994,-0.1963,-0.1958,-0.1954,-0.2011,-0.2011,-0.2011,0,0,-0.2539,-0.2506,-0.2465,-0.2433,-0.2384,-0.2358,-0.2349,-0.2296,-0.2277,-0.2222,-0.2205,-0.2167,-0.2091,-0.2058,-0.203,-0.1986,-0.1974,-0.1973,-0.1961,-0.1931,-0.1927,-0.1923,-0.1908,-0.1902,-0.1968,-0.1968,-0.1968,0,-0.2536,-0.2474,-0.2445,-0.2403,-0.2375,-0.2355,-0.2313,-0.2283,-0.2222,-0.2203,-0.2206,-0.2112,-0.2077,-0.2013,-0.2003,-0.1981,-0.1969,-0.1979,-0.193,-0.1926,-0.1922,-0.1907,-0.1901,-0.1968,-0.1968,-0.1968,-0.1968,0,-0.2472,-0.243,-0.2403,-0.2346,-0.2315,-0.2273,-0.2238,-0.221,-0.2195,-0.2168,-0.2113,-0.2072,-0.202,-0.2003,-0.1987,-0.1937,-0.194,-0.1937,-0.1943,-0.1918,-0.1903,-0.1897,-0.1969,-0.1969,-0.1968,-0.1968,0,0,-0.2443,-0.2374,-0.2364,-0.2339,-0.2284,-0.225,-0.2208,-0.2159,-0.2135,-0.2094,-0.2057,-0.1995,-0.1993,-0.1962,-0.1942,-0.1916,-0.1884,-0.1916,-0.1914,-0.1911,-0.1827,-0.1829,-0.1823,-0.1876,-0.1875,-0.1874,-0.1831,0,-0.2403,-0.2327,-0.2301,-0.2238,-0.2199,-0.218,-0.2143,-0.2106,-0.208,-0.2042,-0.2014,-0.197,-0.197,-0.1952,-0.1925,-0.1893,-0.1866,-0.1896,-0.1841,-0.1839,-0.1854,-0.1815,-0.1817,-0.1778,-0.1825,-0.1824,-0.1823,0,-0.2344,-0.2305,-0.2238,-0.219,-0.2173,-0.214,-0.2094,-0.2058,-0.2015,-0.1998,-0.1966,-0.1948,-0.1902,-0.1912,-0.1849,-0.187,-0.1846,-0.1827,-0.1825,-0.1818,-0.1829,-0.1807,-0.1765,-0.176,-0.1814,-0.1814,-0.1815,0,-0.2331,-0.226,-0.2212,-0.219,-0.2133,-0.2111,-0.2086,-0.2044,-0.2016,-0.1975,-0.1957,-0.1911,-0.1886,-0.185,-0.1821,-0.183,-0.176,-0.1767,-0.1745,-0.1746,-0.173,-0.1732,-0.1684,-0.1716,-0.1716,-0.1716,-0.1716,0,-0.2288,-0.2248,-0.2205,-0.2175,-0.213,-0.2101,-0.2057,-0.2031,-0.1994,-0.1958,-0.1939,-0.1906,-0.1869,-0.1831,-0.1807,-0.1759,-0.1748,-0.1732,-0.1727,-0.1734,-0.1736,-0.1717,-0.1719,-0.1714,-0.1715,-0.1715,-0.1715,0,-0.2264,-0.2234,-0.218,-0.2131,-0.2117,-0.2086,-0.2044,-0.2014,-0.1989,-0.1944,-0.1932,-0.1891,-0.1846,-0.1813,-0.1754,-0.1738,-0.1686,-0.168,-0.1701,-0.1698,-0.1678,-0.168,-0.1616,-0.1606,-0.1645,-0.1645,-0.1644,0,-0.2238,-0.2208,-0.2156,-0.2131,-0.2107,-0.2067,-0.204,-0.201,-0.1982,-0.1932,-0.1908,-0.1862,-0.1823,-0.1751,-0.1715,-0.167,-0.1663,-0.1644,-0.1656,-0.1665,-0.1663,-0.1665,-0.1662,-0.1642,-0.1642,-0.1642,-0.1641,0,-0.2196,-0.2183,-0.2145,-0.2102,-0.207,-0.2034,-0.1997,-0.1978,-0.1942,-0.1911,-0.1866,-0.1836,-0.1776,-0.173,-0.1682,-0.1655,-0.1642,-0.1638,-0.1631,-0.1638,-0.1651,-0.1644,-0.1696,-0.1639,-0.164,-0.164,-0.164,-0.164,-0.2171,-0.2143,-0.2103,-0.2061,-0.2031,-0.1998,-0.1968,-0.194,-0.1901,-0.1851,-0.1836,-0.1789,-0.1747,-0.1681,-0.1654,-0.1616,-0.1617,-0.1606,-0.1603,-0.1601,-0.1601,-0.1658,-0.1607,-0.1607,-0.1607,-0.1607,-0.1607,0,-0.2128,-0.2102,-0.2064,-0.2014,-0.1982,-0.1974,-0.1934,-0.1907,-0.1865,-0.1829,-0.1792,-0.1739,-0.1695,-0.1657,-0.1611,-0.1588,-0.1581,-0.1577,-0.1578,-0.1572,-0.1603,-0.1614,-0.1583,-0.1583,-0.1583,-0.1583,-0.1583,-0.1583,-0.2102,-0.2055,-0.2037,-0.1975,-0.1949,-0.1903,-0.1881,-0.185,-0.1821,-0.1764,-0.1728,-0.1704,-0.1667,-0.1618,-0.1577,-0.1567,-0.1551,-0.1548,-0.1537,-0.1567,-0.1569,-0.1572,-0.1583,-0.1545,-0.1545,-0.1509,-0.1508,-0.1508]}]]